AAL1486 KMIA-KORD

Flight info

Callsign AAL1486
Flight time 2h 49m
Altitude 36000
Route HURCN4 KPASA Q118 KAILL/N0464F330 Q118 VOSTK/N0461F340 Q118 HEVAN BONNT VEECK5
Aircraft B738/M-SDE2E3FGHIRWXY/LB1

Departure

Time 2026-05-04 12:44
Airport Miami International Airport (KMIA)

Arrival

Time 2026-05-04 15:34
Airport Chicago O'Hare International Airport (KORD)
Time Latitude Longitude Altitude Speed Heading
2026-05-04 12:04 25.79816 -80.28462 18 ft 0 kts 178°
2026-05-04 12:33 25.79833 -80.28463 18 ft 4 kts 188°
2026-05-04 12:33 25.79859 -80.28455 19 ft 4 kts 200°
2026-05-04 12:33 25.79884 -80.28443 19 ft 4 kts 208°
2026-05-04 12:33 25.79906 -80.28431 16 ft 1 kts 202°
2026-05-04 12:34 25.79910 -80.28429 17 ft 0 kts 202°
2026-05-04 12:37 25.79903 -80.28429 16 ft 3 kts 176°
2026-05-04 12:37 25.79892 -80.28411 16 ft 3 kts 102°
2026-05-04 12:37 25.79904 -80.28381 15 ft 7 kts 55°
2026-05-04 12:38 25.79938 -80.28329 15 ft 9 kts 53°
2026-05-04 12:38 25.79955 -80.28264 14 ft 9 kts 86°
2026-05-04 12:38 25.79958 -80.28197 14 ft 9 kts 88°
2026-05-04 12:38 25.79960 -80.28132 12 ft 8 kts 89°
2026-05-04 12:39 25.79963 -80.28068 11 ft 8 kts 86°
2026-05-04 12:39 25.79966 -80.28006 11 ft 8 kts 87°
2026-05-04 12:39 25.79969 -80.27946 11 ft 8 kts 87°
2026-05-04 12:39 25.79971 -80.27888 12 ft 7 kts 87°
2026-05-04 12:40 25.79973 -80.27832 13 ft 7 kts 87°
2026-05-04 12:40 25.79976 -80.27778 15 ft 7 kts 87°
2026-05-04 12:40 25.79978 -80.27724 15 ft 7 kts 87°
2026-05-04 12:40 25.79984 -80.27655 16 ft 12 kts 71°
2026-05-04 12:41 25.80054 -80.27603 16 ft 12 kts 43°
2026-05-04 12:41 25.80069 -80.27512 16 ft 12 kts 87°
2026-05-04 12:41 25.80073 -80.27420 18 ft 12 kts 87°
2026-05-04 12:41 25.80077 -80.27330 20 ft 12 kts 87°
2026-05-04 12:42 25.80080 -80.27242 21 ft 11 kts 86°
2026-05-04 12:42 25.80084 -80.27157 21 ft 11 kts 87°
2026-05-04 12:42 25.80088 -80.27074 20 ft 11 kts 89°
2026-05-04 12:42 25.80107 -80.27001 20 ft 10 kts 48°
2026-05-04 12:43 25.80167 -80.26966 20 ft 10 kts 359°
2026-05-04 12:43 25.80200 -80.27022 20 ft 10 kts 272°
2026-05-04 12:43 25.80193 -80.27188 20 ft 51 kts 266°
2026-05-04 12:43 25.80165 -80.27853 16 ft 119 kts 267°
2026-05-04 12:44 25.80122 -80.28996 40 ft 173 kts 269°
2026-05-04 12:44 25.80014 -80.30410 519 ft 191 kts 267°
2026-05-04 12:44 25.79964 -80.31903 1320 ft 194 kts 272°
2026-05-04 12:44 25.79970 -80.33441 1839 ft 209 kts 278°
2026-05-04 12:45 25.80193 -80.35120 2112 ft 228 kts 281°
2026-05-04 12:45 25.80440 -80.36894 2546 ft 242 kts 280°
2026-05-04 12:45 25.80761 -80.38797 2995 ft 257 kts 291°
2026-05-04 12:45 25.81638 -80.40511 3806 ft 257 kts 308°
2026-05-04 12:46 25.82789 -80.42052 4616 ft 261 kts 310°
2026-05-04 12:46 25.83990 -80.43584 5401 ft 263 kts 310°
2026-05-04 12:46 25.85404 -80.44881 6216 ft 268 kts 330°
2026-05-04 12:46 25.87100 -80.45766 6976 ft 271 kts 333°
2026-05-04 12:47 25.88803 -80.46619 7729 ft 273 kts 333°
2026-05-04 12:47 25.90538 -80.47486 8487 ft 275 kts 332°
2026-05-04 12:47 25.92296 -80.48369 9231 ft 278 kts 332°
2026-05-04 12:47 25.94065 -80.49262 9997 ft 280 kts 332°
2026-05-04 12:48 25.95866 -80.50176 10468 ft 293 kts 331°
2026-05-04 12:48 25.97792 -80.51161 10627 ft 316 kts 331°
2026-05-04 12:48 25.99850 -80.52214 10801 ft 337 kts 331°
2026-05-04 12:48 26.02046 -80.53336 10936 ft 357 kts 331°
2026-05-04 12:49 26.04370 -80.54521 11070 ft 374 kts 331°
2026-05-04 12:49 26.06782 -80.55750 11329 ft 386 kts 331°
2026-05-04 12:49 26.09241 -80.57002 11832 ft 389 kts 331°
2026-05-04 12:49 26.11701 -80.58257 12430 ft 390 kts 330°
2026-05-04 12:50 26.14179 -80.59515 13003 ft 392 kts 330°
2026-05-04 12:50 26.16654 -80.60718 13513 ft 395 kts 331°
2026-05-04 12:50 26.19225 -80.61939 14026 ft 397 kts 331°
2026-05-04 12:50 26.21774 -80.63145 14470 ft 399 kts 331°
2026-05-04 12:51 26.24309 -80.64348 14873 ft 403 kts 331°
2026-05-04 12:51 26.26899 -80.65584 15261 ft 406 kts 331°
2026-05-04 12:51 26.29508 -80.66832 15653 ft 410 kts 330°
2026-05-04 12:51 26.32137 -80.68091 16056 ft 412 kts 330°
2026-05-04 12:52 26.34775 -80.69356 16441 ft 415 kts 330°
2026-05-04 12:52 26.37435 -80.70633 16815 ft 417 kts 330°
2026-05-04 12:52 26.40042 -80.72037 17160 ft 414 kts 321°
2026-05-04 12:52 26.42191 -80.74119 17513 ft 406 kts 307°
2026-05-04 12:53 26.44068 -80.76474 17916 ft 407 kts 307°
2026-05-04 12:53 26.45956 -80.78829 18250 ft 410 kts 307°
2026-05-04 12:53 26.47894 -80.81198 18552 ft 413 kts 308°
2026-05-04 12:53 26.49847 -80.83557 18887 ft 414 kts 309°
2026-05-04 12:54 26.52052 -80.85654 19213 ft 424 kts 322°
2026-05-04 12:54 26.54639 -80.87285 19562 ft 427 kts 325°
2026-05-04 12:54 26.57250 -80.88869 19877 ft 429 kts 326°
2026-05-04 12:54 26.59876 -80.90466 20180 ft 430 kts 325°
2026-05-04 12:55 26.62501 -80.92074 20489 ft 431 kts 325°
2026-05-04 12:55 26.65125 -80.93697 20806 ft 431 kts 325°
2026-05-04 12:55 26.67752 -80.95332 21093 ft 433 kts 325°
2026-05-04 12:55 26.70350 -80.96957 21378 ft 434 kts 325°
2026-05-04 12:56 26.72987 -80.98611 21671 ft 434 kts 325°
2026-05-04 12:56 26.75625 -81.00268 21954 ft 435 kts 325°
2026-05-04 12:56 26.78270 -81.01931 22234 ft 436 kts 325°
2026-05-04 12:56 26.80921 -81.03599 22513 ft 437 kts 325°
2026-05-04 12:57 26.83574 -81.05268 22742 ft 439 kts 325°
2026-05-04 12:57 26.86239 -81.06946 22998 ft 440 kts 325°
2026-05-04 12:57 26.88012 -81.08064 23159 ft 441 kts 325°
2026-05-04 12:57 26.90697 -81.09755 23411 ft 442 kts 325°
2026-05-04 12:58 26.93385 -81.11450 23636 ft 443 kts 325°
2026-05-04 12:58 26.96076 -81.13147 23828 ft 444 kts 325°
2026-05-04 12:58 26.98767 -81.14845 24032 ft 445 kts 325°
2026-05-04 12:58 27.01466 -81.16548 24238 ft 445 kts 325°
2026-05-04 12:59 27.04173 -81.18258 24427 ft 446 kts 325°
2026-05-04 12:59 27.06881 -81.19970 24612 ft 447 kts 325°
2026-05-04 12:59 27.09595 -81.21687 24804 ft 448 kts 325°
2026-05-04 12:59 27.12312 -81.23406 24999 ft 449 kts 325°
2026-05-04 13:00 27.15032 -81.25128 25190 ft 449 kts 325°
2026-05-04 13:00 27.17755 -81.26853 25367 ft 450 kts 325°
2026-05-04 13:00 27.20483 -81.28582 25574 ft 450 kts 325°
2026-05-04 13:00 27.23206 -81.30308 25864 ft 448 kts 325°
2026-05-04 13:01 27.25915 -81.32026 26186 ft 446 kts 325°
2026-05-04 13:01 27.28617 -81.33740 26506 ft 444 kts 325°
2026-05-04 13:01 27.31302 -81.35445 26800 ft 443 kts 324°
2026-05-04 13:01 27.33980 -81.37148 27084 ft 442 kts 324°
2026-05-04 13:02 27.36646 -81.38844 27425 ft 440 kts 324°
2026-05-04 13:02 27.39302 -81.40534 27776 ft 438 kts 324°
2026-05-04 13:02 27.41916 -81.42198 28108 ft 436 kts 324°
2026-05-04 13:02 27.44551 -81.43876 28431 ft 434 kts 324°
2026-05-04 13:03 27.47182 -81.45554 28721 ft 433 kts 324°
2026-05-04 13:03 27.49800 -81.47224 28980 ft 432 kts 324°
2026-05-04 13:03 27.52416 -81.48894 29246 ft 431 kts 324°
2026-05-04 13:03 27.55023 -81.50558 29537 ft 429 kts 324°
2026-05-04 13:04 27.57579 -81.52191 29811 ft 428 kts 324°
2026-05-04 13:04 27.60204 -81.53869 30135 ft 426 kts 324°
2026-05-04 13:04 27.62774 -81.55512 30400 ft 424 kts 324°
2026-05-04 13:04 27.65328 -81.57147 30630 ft 424 kts 324°
2026-05-04 13:05 27.67869 -81.58774 30838 ft 423 kts 324°
2026-05-04 13:05 27.70427 -81.60413 31071 ft 422 kts 324°
2026-05-04 13:05 27.72979 -81.62049 31313 ft 421 kts 324°
2026-05-04 13:05 27.75524 -81.63681 31580 ft 420 kts 324°
2026-05-04 13:06 27.78062 -81.65310 31796 ft 420 kts 324°
2026-05-04 13:06 27.80601 -81.66940 32028 ft 419 kts 324°
2026-05-04 13:06 27.83129 -81.68564 32281 ft 418 kts 324°
2026-05-04 13:06 27.85652 -81.70185 32517 ft 417 kts 324°
2026-05-04 13:07 27.88176 -81.71808 32731 ft 417 kts 324°
2026-05-04 13:07 27.90694 -81.73429 32954 ft 416 kts 324°
2026-05-04 13:07 27.93206 -81.75046 33203 ft 415 kts 324°
2026-05-04 13:07 27.95715 -81.76662 33440 ft 414 kts 323°
2026-05-04 13:08 27.98218 -81.78276 33651 ft 413 kts 323°
2026-05-04 13:08 28.00709 -81.79882 33886 ft 413 kts 323°
2026-05-04 13:08 28.03200 -81.81489 34125 ft 412 kts 323°
2026-05-04 13:08 28.05693 -81.83098 34313 ft 411 kts 323°
2026-05-04 13:09 28.08180 -81.84706 34450 ft 412 kts 323°
2026-05-04 13:09 28.10669 -81.86315 34579 ft 413 kts 323°
2026-05-04 13:09 28.13131 -81.87907 34747 ft 412 kts 323°
2026-05-04 13:09 28.15611 -81.89511 34920 ft 412 kts 323°
2026-05-04 13:10 28.18091 -81.91157 35067 ft 409 kts 320°
2026-05-04 13:10 28.20442 -81.92966 35192 ft 409 kts 319°
2026-05-04 13:10 28.22775 -81.94820 35303 ft 409 kts 319°
2026-05-04 13:10 28.25101 -81.96682 35444 ft 410 kts 319°
2026-05-04 13:11 28.27428 -81.98543 35619 ft 409 kts 319°
2026-05-04 13:11 28.29756 -82.00397 35805 ft 409 kts 319°
2026-05-04 13:11 28.32088 -82.02249 35948 ft 409 kts 319°
2026-05-04 13:11 28.34419 -82.04099 36081 ft 409 kts 319°
2026-05-04 13:12 28.36751 -82.05947 36112 ft 410 kts 319°
2026-05-04 13:12 28.41443 -82.09669 36121 ft 409 kts 319°
2026-05-04 13:13 28.46107 -82.13372 36115 ft 408 kts 319°
2026-05-04 13:13 28.50756 -82.17067 36112 ft 407 kts 319°
2026-05-04 13:14 28.55368 -82.20738 36114 ft 406 kts 319°
2026-05-04 13:14 28.59993 -82.24423 36122 ft 406 kts 319°
2026-05-04 13:15 28.64608 -82.28106 36130 ft 405 kts 319°
2026-05-04 13:15 28.69219 -82.31790 36134 ft 405 kts 319°
2026-05-04 13:16 28.73830 -82.35478 36133 ft 404 kts 319°
2026-05-04 13:16 28.78429 -82.39159 36132 ft 404 kts 319°
2026-05-04 13:17 28.83035 -82.42852 36131 ft 405 kts 319°
2026-05-04 13:17 28.87639 -82.46546 36127 ft 405 kts 319°
2026-05-04 13:18 28.92217 -82.50223 36134 ft 405 kts 319°
2026-05-04 13:18 28.96828 -82.53931 36136 ft 405 kts 319°
2026-05-04 13:19 29.01431 -82.57636 36127 ft 405 kts 319°
2026-05-04 13:19 29.06034 -82.61346 36129 ft 404 kts 319°
2026-05-04 13:20 29.10615 -82.65041 36132 ft 403 kts 319°
2026-05-04 13:20 29.15202 -82.68747 36132 ft 402 kts 319°
2026-05-04 13:21 29.19773 -82.72443 36134 ft 402 kts 319°
2026-05-04 13:21 29.24337 -82.76138 36137 ft 401 kts 319°
2026-05-04 13:22 29.28891 -82.79830 36138 ft 401 kts 319°
2026-05-04 13:22 29.33411 -82.83497 36139 ft 400 kts 319°
2026-05-04 13:23 29.37947 -82.87182 36139 ft 400 kts 319°
2026-05-04 13:23 29.42467 -82.90858 36141 ft 399 kts 319°
2026-05-04 13:24 29.47005 -82.94553 36141 ft 399 kts 319°
2026-05-04 13:24 29.51598 -82.98158 36135 ft 403 kts 323°
2026-05-04 13:25 29.59416 -83.02046 36141 ft 409 kts 330°
2026-05-04 13:25 29.64681 -83.04515 36141 ft 409 kts 330°
2026-05-04 13:26 29.69915 -83.06993 36139 ft 408 kts 330°
2026-05-04 13:26 29.75166 -83.09491 36140 ft 408 kts 330°
2026-05-04 13:27 29.80409 -83.11991 36145 ft 408 kts 329°
2026-05-04 13:27 29.85652 -83.14493 36148 ft 407 kts 329°
2026-05-04 13:28 29.90884 -83.16992 36152 ft 407 kts 329°
2026-05-04 13:28 29.96098 -83.19486 36158 ft 406 kts 329°
2026-05-04 13:29 30.01301 -83.21977 36156 ft 406 kts 329°
2026-05-04 13:29 30.06517 -83.24478 36159 ft 405 kts 329°
2026-05-04 13:30 30.11720 -83.26974 36152 ft 405 kts 329°
2026-05-04 13:30 30.16913 -83.29470 36157 ft 404 kts 329°
2026-05-04 13:31 30.22119 -83.31974 36153 ft 404 kts 329°
2026-05-04 13:31 30.27305 -83.34473 36158 ft 403 kts 329°
2026-05-04 13:32 30.32487 -83.36977 36155 ft 403 kts 329°
2026-05-04 13:32 30.37663 -83.39481 36157 ft 403 kts 329°
2026-05-04 13:33 30.42802 -83.41970 36161 ft 403 kts 329°
2026-05-04 13:33 30.47960 -83.44471 36165 ft 402 kts 329°
2026-05-04 13:34 30.53132 -83.46982 36162 ft 402 kts 329°
2026-05-04 13:34 30.58303 -83.49495 36165 ft 402 kts 329°
2026-05-04 13:35 30.66052 -83.53267 36163 ft 402 kts 329°
2026-05-04 13:36 30.71217 -83.55784 36163 ft 402 kts 329°
2026-05-04 13:36 30.76353 -83.58290 36175 ft 402 kts 329°
2026-05-04 13:37 30.81512 -83.60811 36166 ft 402 kts 329°
2026-05-04 13:37 30.86673 -83.63336 36165 ft 402 kts 329°
2026-05-04 13:38 30.91762 -83.65828 36167 ft 402 kts 329°
2026-05-04 13:38 30.96924 -83.68359 36158 ft 402 kts 329°
2026-05-04 13:39 31.02076 -83.70888 36158 ft 402 kts 329°
2026-05-04 13:39 31.07234 -83.73422 36160 ft 402 kts 329°
2026-05-04 13:40 31.12395 -83.75961 36161 ft 402 kts 329°
2026-05-04 13:40 31.17551 -83.78501 36160 ft 402 kts 329°
2026-05-04 13:41 31.22708 -83.81045 36164 ft 403 kts 329°
2026-05-04 13:41 31.27838 -83.83578 36166 ft 403 kts 329°
2026-05-04 13:42 31.35601 -83.87417 36165 ft 404 kts 329°
2026-05-04 13:42 31.40785 -83.89985 36170 ft 404 kts 329°
2026-05-04 13:43 31.45967 -83.92554 36171 ft 404 kts 329°
2026-05-04 13:43 31.51161 -83.95114 36169 ft 407 kts 331°
2026-05-04 13:44 31.56709 -83.96764 36182 ft 418 kts 340°
2026-05-04 13:44 31.62445 -83.97995 36169 ft 419 kts 341°
2026-05-04 13:45 31.68173 -83.99236 36170 ft 419 kts 340°
2026-05-04 13:45 31.73898 -84.00499 36168 ft 419 kts 340°
2026-05-04 13:46 31.78670 -84.01560 36157 ft 419 kts 340°
2026-05-04 13:46 31.84400 -84.02839 36155 ft 419 kts 340°
2026-05-04 13:47 31.90140 -84.04122 36149 ft 420 kts 340°
2026-05-04 13:47 31.95885 -84.05407 36143 ft 420 kts 341°
2026-05-04 13:48 32.01630 -84.06693 36139 ft 421 kts 341°
2026-05-04 13:48 32.07348 -84.07975 36134 ft 421 kts 341°
2026-05-04 13:49 32.13111 -84.09269 36133 ft 422 kts 341°
2026-05-04 13:49 32.18878 -84.10566 36140 ft 422 kts 341°
2026-05-04 13:50 32.24655 -84.11866 36130 ft 423 kts 341°
2026-05-04 13:50 32.30441 -84.13170 36139 ft 424 kts 341°
2026-05-04 13:51 32.36220 -84.14475 36150 ft 424 kts 341°
2026-05-04 13:51 32.42045 -84.15791 36143 ft 425 kts 341°
2026-05-04 13:52 32.50770 -84.17765 36143 ft 426 kts 341°
2026-05-04 13:53 32.56603 -84.19088 36140 ft 427 kts 341°
2026-05-04 13:53 32.62395 -84.20402 36141 ft 427 kts 341°
2026-05-04 13:54 32.71160 -84.22395 36138 ft 428 kts 341°
2026-05-04 13:55 32.79951 -84.24398 36143 ft 428 kts 341°
2026-05-04 13:55 32.88748 -84.26407 36149 ft 429 kts 341°
2026-05-04 13:56 32.94591 -84.27743 36141 ft 430 kts 341°
2026-05-04 13:57 33.03380 -84.29756 36149 ft 431 kts 341°
2026-05-04 13:58 33.15198 -84.32469 36165 ft 431 kts 341°
2026-05-04 13:58 33.24042 -84.34505 36176 ft 431 kts 342°
2026-05-04 13:59 33.29935 -84.35864 36188 ft 431 kts 342°
2026-05-04 14:00 33.38716 -84.37892 36192 ft 432 kts 342°
2026-05-04 14:00 33.47588 -84.39945 36185 ft 433 kts 342°
2026-05-04 14:01 33.53495 -84.41315 36147 ft 433 kts 342°
2026-05-04 14:02 33.62383 -84.43379 36146 ft 433 kts 342°
2026-05-04 14:02 33.68310 -84.44704 36152 ft 434 kts 342°
2026-05-04 14:03 33.74257 -84.45992 36152 ft 434 kts 342°
2026-05-04 14:03 33.80169 -84.47279 36152 ft 434 kts 342°
2026-05-04 14:04 33.89089 -84.49236 36123 ft 434 kts 342°
2026-05-04 14:04 33.95044 -84.50547 36121 ft 435 kts 342°
2026-05-04 14:05 34.03949 -84.52451 36156 ft 438 kts 346°
2026-05-04 14:06 34.10000 -84.53142 36166 ft 440 kts 348°
2026-05-04 14:06 34.16119 -84.53721 36152 ft 440 kts 348°
2026-05-04 14:07 34.22220 -84.54320 36157 ft 440 kts 348°
2026-05-04 14:07 34.28333 -84.54949 36158 ft 440 kts 348°
2026-05-04 14:08 34.34431 -84.55588 36157 ft 439 kts 348°
2026-05-04 14:08 34.40523 -84.56230 36152 ft 439 kts 348°
2026-05-04 14:09 34.49646 -84.57193 36141 ft 439 kts 348°
2026-05-04 14:10 34.58728 -84.58152 36138 ft 438 kts 348°
2026-05-04 14:10 34.64804 -84.58795 36134 ft 438 kts 348°
2026-05-04 14:11 34.70834 -84.59434 36134 ft 437 kts 348°
2026-05-04 14:11 34.79960 -84.60403 36131 ft 437 kts 348°
2026-05-04 14:12 34.86023 -84.61048 36135 ft 436 kts 348°
2026-05-04 14:13 34.95104 -84.62016 36122 ft 437 kts 348°
2026-05-04 14:13 35.01162 -84.62663 36119 ft 437 kts 348°
2026-05-04 14:14 35.07159 -84.63304 36118 ft 437 kts 348°
2026-05-04 14:14 35.16280 -84.64281 36114 ft 438 kts 348°
2026-05-04 14:15 35.28393 -84.65582 36110 ft 437 kts 348°
2026-05-04 14:16 35.37482 -84.66560 36153 ft 437 kts 348°
2026-05-04 14:17 35.46527 -84.67536 36147 ft 436 kts 348°
2026-05-04 14:18 35.55646 -84.68522 36139 ft 436 kts 348°
2026-05-04 14:19 35.67701 -84.69830 36114 ft 434 kts 348°
2026-05-04 14:19 35.73693 -84.70481 36115 ft 434 kts 348°
2026-05-04 14:20 35.79700 -84.71135 36119 ft 433 kts 348°
2026-05-04 14:20 35.85687 -84.71787 36128 ft 432 kts 348°
2026-05-04 14:21 35.94646 -84.72766 36124 ft 432 kts 348°
2026-05-04 14:21 36.00681 -84.73427 36130 ft 431 kts 348°
2026-05-04 14:22 36.06634 -84.74080 36119 ft 430 kts 348°
2026-05-04 14:22 36.12555 -84.74730 36112 ft 430 kts 348°
2026-05-04 14:23 36.21556 -84.75720 36083 ft 429 kts 348°
2026-05-04 14:24 36.27483 -84.76373 36084 ft 429 kts 348°
2026-05-04 14:24 36.33448 -84.77032 36083 ft 429 kts 348°
2026-05-04 14:25 36.39354 -84.77684 36087 ft 428 kts 348°
2026-05-04 14:25 36.48353 -84.77955 36084 ft 434 kts 354°
2026-05-04 14:26 36.54407 -84.77711 36085 ft 435 kts 354°
2026-05-04 14:26 36.60349 -84.77494 36076 ft 435 kts 354°
2026-05-04 14:27 36.66502 -84.77304 36087 ft 435 kts 354°
2026-05-04 14:27 36.72479 -84.77133 36085 ft 435 kts 354°
2026-05-04 14:28 36.78560 -84.76960 36098 ft 435 kts 354°
2026-05-04 14:28 36.84597 -84.76787 36090 ft 435 kts 354°
2026-05-04 14:29 36.96678 -84.76439 36092 ft 435 kts 354°
2026-05-04 14:30 37.02653 -84.76267 36054 ft 435 kts 354°
2026-05-04 14:31 37.11794 -84.76002 36053 ft 435 kts 354°
2026-05-04 14:32 37.23808 -84.75653 36042 ft 434 kts 354°
2026-05-04 14:32 37.29924 -84.75475 36037 ft 434 kts 354°
2026-05-04 14:33 37.35958 -84.75292 36032 ft 434 kts 354°
2026-05-04 14:33 37.41999 -84.75088 36028 ft 434 kts 354°
2026-05-04 14:34 37.48035 -84.74884 36033 ft 433 kts 354°
2026-05-04 14:34 37.54039 -84.74684 36028 ft 433 kts 354°
2026-05-04 14:35 37.59036 -84.74517 36030 ft 433 kts 354°
2026-05-04 14:35 37.66068 -84.74282 36028 ft 432 kts 354°
2026-05-04 14:36 37.72084 -84.74081 36021 ft 432 kts 354°
2026-05-04 14:36 37.77076 -84.73926 36015 ft 431 kts 354°
2026-05-04 14:37 37.83079 -84.73748 35984 ft 431 kts 354°
2026-05-04 14:37 37.89084 -84.73569 35978 ft 431 kts 354°
2026-05-04 14:38 37.95064 -84.73388 35977 ft 431 kts 354°
2026-05-04 14:38 38.01085 -84.73206 35971 ft 431 kts 354°
2026-05-04 14:39 38.07045 -84.73025 35982 ft 431 kts 354°
2026-05-04 14:39 38.13045 -84.72842 35969 ft 431 kts 354°
2026-05-04 14:40 38.22051 -84.72568 35963 ft 431 kts 354°
2026-05-04 14:40 38.28050 -84.72385 35957 ft 431 kts 354°
2026-05-04 14:41 38.34063 -84.72200 35958 ft 431 kts 354°
2026-05-04 14:42 38.45981 -84.72030 35943 ft 424 kts 347°
2026-05-04 14:42 38.51625 -84.73758 35949 ft 412 kts 334°
2026-05-04 14:43 38.57003 -84.76302 35941 ft 412 kts 334°
2026-05-04 14:43 38.62322 -84.78811 35941 ft 412 kts 334°
2026-05-04 14:44 38.67767 -84.81346 35931 ft 412 kts 335°
2026-05-04 14:44 38.73156 -84.83847 35923 ft 412 kts 335°
2026-05-04 14:45 38.78501 -84.86329 35927 ft 412 kts 335°
2026-05-04 14:45 38.83904 -84.88843 35908 ft 412 kts 335°
2026-05-04 14:46 38.89295 -84.91356 35912 ft 413 kts 335°
2026-05-04 14:46 38.94661 -84.93860 35909 ft 413 kts 335°
2026-05-04 14:47 39.00080 -84.96403 35903 ft 414 kts 334°
2026-05-04 14:47 39.05496 -84.98951 35904 ft 414 kts 334°
2026-05-04 14:48 39.10913 -85.01504 35894 ft 415 kts 335°
2026-05-04 14:48 39.16339 -85.04064 35889 ft 415 kts 334°
2026-05-04 14:49 39.21763 -85.06628 35887 ft 416 kts 334°
2026-05-04 14:49 39.27194 -85.09200 35890 ft 417 kts 334°
2026-05-04 14:50 39.32611 -85.11769 35889 ft 417 kts 334°
2026-05-04 14:50 39.38075 -85.14361 35888 ft 418 kts 335°
2026-05-04 14:51 39.43542 -85.16948 35890 ft 419 kts 335°
2026-05-04 14:51 39.48607 -85.19349 35885 ft 420 kts 335°
2026-05-04 14:52 39.53933 -85.21878 35884 ft 421 kts 335°
2026-05-04 14:52 39.59438 -85.24498 35876 ft 422 kts 335°
2026-05-04 14:53 39.64961 -85.27130 35858 ft 423 kts 335°
2026-05-04 14:53 39.70501 -85.29776 35861 ft 425 kts 335°
2026-05-04 14:54 39.76058 -85.32434 35860 ft 426 kts 335°
2026-05-04 14:54 39.81628 -85.35103 35865 ft 427 kts 335°
2026-05-04 14:55 39.87182 -85.37769 35862 ft 429 kts 335°
2026-05-04 14:55 39.92785 -85.40463 35863 ft 429 kts 335°
2026-05-04 14:56 39.98391 -85.43163 35857 ft 430 kts 335°
2026-05-04 14:56 40.04001 -85.45870 35841 ft 430 kts 335°
2026-05-04 14:57 40.09611 -85.48581 35842 ft 429 kts 335°
2026-05-04 14:57 40.15213 -85.51293 35841 ft 429 kts 335°
2026-05-04 14:58 40.20775 -85.53991 35815 ft 428 kts 335°
2026-05-04 14:58 40.26353 -85.56702 35821 ft 427 kts 335°
2026-05-04 14:59 40.31917 -85.59411 35820 ft 427 kts 335°
2026-05-04 15:00 40.40255 -85.63479 35825 ft 426 kts 335°
2026-05-04 15:00 40.45800 -85.66190 35823 ft 425 kts 335°
2026-05-04 15:01 40.54209 -85.69872 35828 ft 427 kts 340°
2026-05-04 15:01 40.59961 -85.71882 35820 ft 427 kts 341°
2026-05-04 15:02 40.65689 -85.73927 35822 ft 427 kts 340°
2026-05-04 15:02 40.71427 -85.76033 35820 ft 427 kts 340°
2026-05-04 15:03 40.77155 -85.78149 35812 ft 427 kts 340°
2026-05-04 15:03 40.82860 -85.80339 35793 ft 424 kts 333°
2026-05-04 15:04 40.85333 -85.82267 35817 ft 416 kts 318°
2026-05-04 15:04 40.87413 -85.84969 35800 ft 413 kts 306°
2026-05-04 15:04 40.88903 -85.88144 35799 ft 411 kts 295°
2026-05-04 15:04 40.90069 -85.91602 35794 ft 412 kts 293°
2026-05-04 15:05 40.92273 -85.98615 35782 ft 413 kts 292°
2026-05-04 15:05 40.94491 -86.05644 35792 ft 414 kts 293°
2026-05-04 15:06 40.96742 -86.12653 35782 ft 415 kts 293°
2026-05-04 15:07 41.00144 -86.23196 35785 ft 415 kts 293°
2026-05-04 15:07 41.02392 -86.30181 35788 ft 415 kts 293°
2026-05-04 15:08 41.04648 -86.37211 35783 ft 415 kts 293°
2026-05-04 15:08 41.06902 -86.44255 35785 ft 415 kts 292°
2026-05-04 15:09 41.09148 -86.51293 35782 ft 415 kts 292°
2026-05-04 15:09 41.11394 -86.58342 35764 ft 414 kts 292°
2026-05-04 15:10 41.15182 -86.68642 35764 ft 414 kts 299°
2026-05-04 15:11 41.19487 -86.78591 35758 ft 414 kts 298°
2026-05-04 15:11 41.22308 -86.85276 35757 ft 414 kts 298°
2026-05-04 15:12 41.25085 -86.91938 35761 ft 414 kts 298°
2026-05-04 15:12 41.27868 -86.98639 35756 ft 414 kts 298°
2026-05-04 15:13 41.30649 -87.05351 35757 ft 414 kts 298°
2026-05-04 15:13 41.33423 -87.12056 35754 ft 414 kts 298°
2026-05-04 15:14 41.36265 -87.18754 35746 ft 415 kts 304°
2026-05-04 15:14 41.38198 -87.21594 35762 ft 417 kts 315°
2026-05-04 15:14 41.40379 -87.24162 35750 ft 418 kts 316°
2026-05-04 15:15 41.44793 -87.29287 35730 ft 418 kts 316°
2026-05-04 15:15 41.49048 -87.34362 35689 ft 414 kts 315°
2026-05-04 15:16 41.53542 -87.39037 34545 ft 414 kts 323°
2026-05-04 15:16 41.55975 -87.41131 33680 ft 421 kts 324°
2026-05-04 15:16 41.61016 -87.45210 31176 ft 432 kts 336°
2026-05-04 15:17 41.63999 -87.46007 29732 ft 449 kts 357°
2026-05-04 15:17 41.69935 -87.43185 26541 ft 479 kts 37°
2026-05-04 15:17 41.72080 -87.39764 25491 ft 482 kts 60°
2026-05-04 15:18 41.73310 -87.35685 25243 ft 460 kts 68°
2026-05-04 15:18 41.74562 -87.31871 25073 ft 436 kts 60°
2026-05-04 15:18 41.76070 -87.28419 24532 ft 424 kts 54°
2026-05-04 15:19 41.79394 -87.21928 22801 ft 423 kts 52°
2026-05-04 15:19 41.81049 -87.18699 22044 ft 418 kts 53°
2026-05-04 15:19 41.85251 -87.13800 20560 ft 393 kts 17°
2026-05-04 15:20 41.87845 -87.12941 19845 ft 379 kts 359°
2026-05-04 15:20 41.90418 -87.13105 19128 ft 366 kts 343°
2026-05-04 15:20 41.92782 -87.14177 18427 ft 354 kts 328°
2026-05-04 15:20 41.94762 -87.15978 17712 ft 343 kts 313°
2026-05-04 15:21 41.96325 -87.18376 17097 ft 331 kts 301°
2026-05-04 15:21 41.97420 -87.20926 16978 ft 308 kts 290°
2026-05-04 15:21 41.98320 -87.26168 16608 ft 275 kts 276°
2026-05-04 15:22 41.98570 -87.28700 16106 ft 273 kts 276°
2026-05-04 15:22 41.98753 -87.31233 15558 ft 272 kts 271°
2026-05-04 15:22 41.99036 -87.36233 14560 ft 271 kts 293°
2026-05-04 15:23 42.00272 -87.38159 14058 ft 280 kts 324°
2026-05-04 15:23 42.02159 -87.38903 13576 ft 293 kts 355°
2026-05-04 15:23 42.04157 -87.38199 13041 ft 307 kts 26°
2026-05-04 15:23 42.05696 -87.36167 12499 ft 317 kts 58°
2026-05-04 15:24 42.06138 -87.31403 11628 ft 315 kts 111°
2026-05-04 15:24 42.02621 -87.27566 10517 ft 278 kts 186°
2026-05-04 15:25 42.00710 -87.27602 10071 ft 276 kts 182°
2026-05-04 15:25 41.99442 -87.27447 9766 ft 276 kts 180°
2026-05-04 15:25 41.97541 -87.27326 9283 ft 268 kts 195°
2026-05-04 15:26 41.95144 -87.30324 8316 ft 243 kts 263°
2026-05-04 15:26 41.95464 -87.32527 7810 ft 249 kts 297°
2026-05-04 15:26 41.97520 -87.36336 7040 ft 250 kts 294°
2026-05-04 15:27 41.98148 -87.38468 6879 ft 243 kts 281°
2026-05-04 15:27 41.98590 -87.42965 6802 ft 241 kts 271°
2026-05-04 15:28 41.98715 -87.47340 6411 ft 228 kts 269°
2026-05-04 15:28 41.98740 -87.49466 5983 ft 227 kts 268°
2026-05-04 15:28 41.98782 -87.53709 5160 ft 226 kts 269°
2026-05-04 15:29 41.98850 -87.55791 4858 ft 226 kts 269°
2026-05-04 15:30 41.98874 -87.64260 4236 ft 226 kts 266°
2026-05-04 15:30 41.98856 -87.70628 3344 ft 228 kts 267°
2026-05-04 15:31 41.98850 -87.74743 2748 ft 215 kts 266°
2026-05-04 15:31 41.98844 -87.76723 2446 ft 200 kts 266°
2026-05-04 15:32 41.98838 -87.81775 1762 ft 164 kts 266°
2026-05-04 15:32 41.98833 -87.84668 1305 ft 146 kts 266°
2026-05-04 15:33 41.98824 -87.87051 923 ft 121 kts 265°
2026-05-04 15:34 41.98820 -87.90340 669 ft 78 kts 270°
2026-05-04 15:34 41.98831 -87.90783 669 ft 17 kts 270°
2026-05-04 15:34 41.98829 -87.91119 669 ft 20 kts 269°
2026-05-04 15:35 41.98803 -87.91474 667 ft 19 kts 242°
2026-05-04 15:35 41.98728 -87.91613 666 ft 18 kts 233°
2026-05-04 15:35 41.98679 -87.91765 668 ft 18 kts 253°
2026-05-04 15:36 41.98463 -87.91822 668 ft 16 kts 180°
2026-05-04 15:36 41.98352 -87.91821 669 ft 16 kts 179°
2026-05-04 15:36 41.98245 -87.91821 668 ft 15 kts 181°
2026-05-04 15:37 41.98143 -87.91822 668 ft 14 kts 180°
2026-05-04 15:37 41.98047 -87.91810 668 ft 14 kts 146°
2026-05-04 15:37 41.97975 -87.91730 667 ft 13 kts 140°
2026-05-04 15:37 41.97907 -87.91652 668 ft 13 kts 140°
2026-05-04 15:38 41.97840 -87.91576 668 ft 12 kts 140°
2026-05-04 15:38 41.97774 -87.91502 668 ft 12 kts 139°
2026-05-04 15:38 41.97710 -87.91429 668 ft 12 kts 140°
2026-05-04 15:38 41.97648 -87.91360 668 ft 12 kts 140°
2026-05-04 15:39 41.97587 -87.91291 667 ft 11 kts 139°
2026-05-04 15:39 41.97529 -87.91224 668 ft 11 kts 140°
2026-05-04 15:39 41.97416 -87.91098 668 ft 10 kts 140°
2026-05-04 15:40 41.97337 -87.91001 668 ft 19 kts 120°
2026-05-04 15:40 41.97305 -87.90837 668 ft 19 kts 133°
2026-05-04 15:40 41.97229 -87.90696 668 ft 18 kts 108°
2026-05-04 15:40 41.97213 -87.90531 668 ft 18 kts 94°
2026-05-04 15:41 41.97206 -87.90368 668 ft 17 kts 92°
2026-05-04 15:41 41.97205 -87.90211 668 ft 16 kts 87°
2026-05-04 15:41 41.97205 -87.90060 668 ft 16 kts 92°
2026-05-04 15:41 41.97209 -87.89915 668 ft 15 kts 81°
2026-05-04 15:42 41.97246 -87.89787 668 ft 15 kts 58°
2026-05-04 15:42 41.97298 -87.89672 667 ft 14 kts 62°
2026-05-04 15:42 41.97356 -87.89573 666 ft 13 kts 35°
2026-05-04 15:42 41.97440 -87.89527 668 ft 13 kts 12°
2026-05-04 15:43 41.97510 -87.89574 668 ft 13 kts 293°
2026-05-04 15:43 41.97540 -87.89683 668 ft 12 kts 290°
2026-05-04 15:43 41.97568 -87.89788 668 ft 10 kts 290°
2026-05-04 15:43 41.97574 -87.89828 668 ft 0 kts 271°
2026-05-04 15:44 41.97571 -87.89831 668 ft 1 kts 240°
2026-05-04 15:44 41.97560 -87.89835 667 ft 3 kts 198°
2026-05-04 15:44 41.97541 -87.89844 668 ft 2 kts 200°
2026-05-04 15:45 41.97539 -87.89845 668 ft 1 kts 200°
2026-05-04 15:45 41.97536 -87.89847 668 ft 0 kts 200°